[ hide orbit diagram ]
For accurate long-term ephemerides, please instead use our Horizons system.This orbit viewer was implemented using two-body methods, and hence should not be used for determining accurate long-term trajectories (over several years or decades) or planetary encounter circumstances.
Orbital Elements at Epoch 2459000.5 (2020-May-31.0) TDB
Reference: JPL 20 (heliocentric ecliptic J2000)
Element | Value | Uncertainty (1-sigma) | Units |
e | .07405870052220964 | 5.5849e-08 | |
a | 2.973443789751351 | 3.5216e-08 | au |
q | 2.753234406606532 | 1.5569e-07 | au |
i | 10.13179635597064 | 5.0893e-06 | deg |
node | 218.9583155134226 | 3.4299e-05 | deg |
peri | 168.8793932984099 | 5.2351e-05 | deg |
M | 132.6662422009535 | 3.9517e-05 | deg |
tp | 2458310.346089031879 (2018-Jul-10.84608903) | 0.00020439 | TDB |
period | 1872.785448857297 5.13 | 3.3271e-05 9.109e-08 | d yr |
n | .1922270381904443 | 3.415e-09 | deg/d |
Q | 3.19365317289617 | 3.7824e-08 | au |
|
| | Orbit Determination Parameters
Additional Information
|
[ hide covariance matrix ]
Orbital Elements at Epoch 2457478.5 (2016-Mar-31.0) TDB
Reference: JPL 20 (heliocentric ecliptic J2000)
Element | Value | Uncertainty (1-sigma) | Units |
e | .07328794564226916 | 5.5663e-08 | |
q | 2.755248894911293 | 1.5487e-07 | au |
tp | 2458313.372857195502 (2018-Jul-13.87285720) | 0.00020692 | TDB |
node | 218.9761176708398 | 3.4296e-05 | deg |
peri | 169.5230225863254 | 5.2769e-05 | deg |
i | 10.13208063399677 | 5.0896e-06 | deg |
|
| | Orbit Determination Parameters
Additional Information
|
Orbit Covariance (6×6)
|
|
e |
q |
tp |
node |
peri |
i |
e |
3.098323395167442E-15 |
-8.460774118655125E-15 |
-1.430948594882932E-12 |
1.780380159336138E-14 |
-4.700816512225024E-13 |
1.649926834509027E-15 |
q |
-8.460774118655125E-15 |
2.398425772571851E-14 |
4.610107458844254E-12 |
-4.784166940958876E-14 |
1.336267929766925E-12 |
-2.849016502323892E-15 |
tp |
-1.430948594882932E-12 |
4.610107458844254E-12 |
4.281417251291799E-8 |
-2.438738527828649E-11 |
8.304363285019228E-9 |
-8.927953760806512E-12 |
node |
1.780380159336138E-14 |
-4.784166940958876E-14 |
-2.438738527828649E-11 |
1.176219537357868E-9 |
-1.163039025293386E-9 |
-1.864852856054352E-11 |
peri |
-4.700816512225024E-13 |
1.336267929766925E-12 |
8.304363285019228E-9 |
-1.163039025293386E-9 |
2.784543087213129E-9 |
1.654341370319466E-11 |
i |
1.649926834509027E-15 |
-2.849016502323892E-15 |
-8.927953760806512E-12 |
-1.864852856054352E-11 |
1.654341370319466E-11 |
2.590437269528193E-11 |
|
Physical Parameter Table
Parameter |
Symbol |
Value |
Units |
Sigma |
Reference |
Notes |
absolute magnitude |
H |
15.97 |
|
n/a |
E2021B55 |
|
diameter |
diameter |
4.943 |
km |
1.407 |
urn:nasa:pds:neowise_diameters_albedos::2.0[mainbelt] (http://adsabs.harvard.edu/abs/2011ApJ...741...68M) |
|
geometric albedo |
albedo |
0.029 |
|
0.023 |
urn:nasa:pds:neowise_diameters_albedos::2.0[mainbelt] (http://adsabs.harvard.edu/abs/2011ApJ...741...68M) |
|
|
243096 Klauswerner | Discovered 2007 Sept. 12 by R. Apitzsch at Wildberg. |
Klaus Werner (b. 1957) is Professor of astronomy at the University of Tübingen. His research focuses on compact objects and optical and UV astronomy. |
NOTE: some special characters may not display properly (any characters within {} are an attempt to place the proper accent above a character) |
Reference: 20120207/MPCPages.arc | Last Updated: 2012-02-09 |
|
[ show close-approach data ]
|